| time (UTC) | temp C | wind direction | speed KPH | gust KPH | rain 1hr cm | rain 24hr cm | rain mn cm | humidity % | barometer mb |
| 20260905151205 | 35 | 42 | 3.2 | 8.0 | 0.00 | 0.00 | 0.00 | 24 | 1010.8 |
| 20260905150704 | 35 | 40 | 4.8 | 8.0 | 0.00 | 0.00 | 0.00 | 24 | 1010.8 |
| 20260905144204 | 35 | 0 | 3.2 | 4.8 | 0.00 | 0.00 | 0.00 | 24 | 1011.1 |
| 20260905143204 | 35 | 48 | 3.2 | 8.0 | 0.00 | 0.00 | 0.00 | 24 | 1011.1 |
| 20260905141704 | 35 | 31 | 3.2 | 11.3 | 0.00 | 0.00 | 0.00 | 25 | 1011.3 |
| 20260905141205 | 35 | 15 | 3.2 | 4.8 | 0.00 | 0.00 | 0.00 | 24 | 1011.3 |
| 20260905140704 | 35 | 14 | 1.6 | 3.2 | 0.00 | 0.00 | 0.00 | 24 | 1011.3 |
| 20260905134704 | 34 | 11 | 1.6 | 4.8 | 0.00 | 0.00 | 0.00 | 25 | 1011.3 |
| 20260905133705 | 34 | 22 | 1.6 | 8.0 | 0.00 | 0.00 | 0.00 | 25 | 1011.6 |
| 20260905131705 | 33 | 3 | 3.2 | 8.0 | 0.00 | 0.00 | 0.00 | 25 | 1011.6 |
| 20260905131204 | 33 | 6 | 1.6 | 4.8 | 0.00 | 0.00 | 0.00 | 25 | 1011.6 |
| 20260905130704 | 33 | 30 | 3.2 | 9.7 | 0.00 | 0.00 | 0.00 | 25 | 1011.6 |
| 20260905124204 | 33 | 14 | 3.2 | 14.5 | 0.00 | 0.00 | 0.00 | 26 | 1012.1 |
| 20260905121204 | 33 | 49 | 1.6 | 9.7 | 0.00 | 0.00 | 0.00 | 25 | 1012.2 |
| 20260905120704 | 33 | 341 | 4.8 | 12.9 | 0.00 | 0.00 | 0.00 | 25 | 1012.2 |
| 20260905114704 | 33 | 23 | 3.2 | 8.0 | 0.00 | 0.00 | 0.00 | 26 | 1012.2 |
| 20260905114204 | 33 | 13 | 3.2 | 11.3 | 0.00 | 0.00 | 0.00 | 25 | 1012.2 |
| 20260905113704 | 33 | 23 | 3.2 | 4.8 | 0.00 | 0.00 | 0.00 | 25 | 1012.2 |
| 20260905113204 | 32 | 30 | 3.2 | 16.1 | 0.00 | 0.00 | 0.00 | 25 | 1012.2 |
| 20260905111204 | 32 | 30 | 3.2 | 8.0 | 0.00 | 0.00 | 0.00 | 25 | 1012.7 |
| 20260905110704 | 32 | 24 | 3.2 | 4.8 | 0.00 | 0.00 | 0.00 | 26 | 1012.7 |
| 20260905110205 | 32 | 19 | 3.2 | 8.0 | 0.00 | 0.00 | 0.00 | 25 | 1012.7 |
| 20260905104704 | 32 | 43 | 3.2 | 8.0 | 0.00 | 0.00 | 0.00 | 26 | 1012.7 |
| 20260905104204 | 32 | 45 | 3.2 | 8.0 | 0.00 | 0.00 | 0.00 | 26 | 1012.7 |
| 20260905103704 | 32 | 33 | 1.6 | 8.0 | 0.00 | 0.00 | 0.00 | 26 | 1012.7 |
| 20260905101204 | 31 | 17 | 3.2 | 4.8 | 0.00 | 0.00 | 0.00 | 25 | 1012.7 |
| 20260905100204 | 31 | 35 | 1.6 | 8.0 | 0.00 | 0.00 | 0.00 | 25 | 1012.7 |
| 20260905094204 | 31 | 32 | 3.2 | 8.0 | 0.00 | 0.00 | 0.00 | 28 | 1012.7 |
| 20260905093704 | 30 | 32 | 3.2 | 4.8 | 0.00 | 0.00 | 0.00 | 27 | 1012.7 |
| 20260905090204 | 29 | 24 | 1.6 | 4.8 | 0.00 | 0.00 | 0.00 | 30 | 1012.7 |
| 20260905084204 | 28 | 6 | 3.2 | 4.8 | 0.00 | 0.00 | 0.00 | 30 | 1012.6 |
| 20260905083705 | 28 | 17 | 1.6 | 4.8 | 0.00 | 0.00 | 0.00 | 32 | 1012.6 |
| 20260905083204 | 28 | 16 | 1.6 | 11.3 | 0.00 | 0.00 | 0.00 | 32 | 1012.6 |
| 20260905074204 | 27 | 331 | 3.2 | 4.8 | 0.00 | 0.00 | 0.00 | 34 | 1012.3 |
| 20260905071704 | 27 | 1 | 3.2 | 4.8 | 0.00 | 0.00 | 0.00 | 32 | 1012.1 |
| 20260905070204 | 26 | 340 | 0.0 | 3.2 | 0.00 | 0.00 | 0.00 | 38 | 1012.1 |
| 20260905064704 | 25 | 340 | 0.0 | 0.0 | 0.00 | 0.00 | 0.00 | 43 | 1012.1 |
| 20260905064204 | 25 | 340 | 0.0 | 0.0 | 0.00 | 0.00 | 0.00 | 43 | 1012.1 |
| 20260905060704 | 22 | 355 | 0.0 | 3.2 | 0.00 | 0.00 | 0.00 | 49 | 1011.5 |
| 20260905054703 | 21 | 355 | 0.0 | 4.8 | 0.00 | 0.00 | 0.00 | 51 | 1011.5 |
| 20260905053704 | 21 | 355 | 1.6 | 3.2 | 0.00 | 0.00 | 0.00 | 50 | 1011.5 |
| 20260905053204 | 20 | 355 | 1.6 | 4.8 | 0.00 | 0.00 | 0.00 | 50 | 1011.6 |
| 20260905051204 | 20 | 355 | 0.0 | 3.2 | 0.00 | 0.00 | 0.00 | 54 | 1011.2 |
| 20260905050704 | 20 | 355 | 0.0 | 3.2 | 0.00 | 0.00 | 0.00 | 53 | 1011.2 |
| 20260905043204 | 20 | 355 | 1.6 | 3.2 | 0.00 | 0.00 | 0.00 | 51 | 1011.1 |
| 20260905040204 | 20 | 355 | 0.0 | 3.2 | 0.00 | 0.00 | 0.00 | 53 | 1011.1 |
| 20260905034704 | 20 | 355 | 0.0 | 3.2 | 0.00 | 0.00 | 0.00 | 54 | 1011.1 |
| 20260905034203 | 20 | 355 | 0.0 | 3.2 | 0.00 | 0.00 | 0.00 | 54 | 1011.1 |
| 20260905033704 | 21 | 355 | 0.0 | 1.6 | 0.00 | 0.00 | 0.00 | 53 | 1011.1 |
| 20260905033204 | 21 | 355 | 0.0 | 1.6 | 0.00 | 0.00 | 0.00 | 52 | 1011.1 |
| 20260905031704 | 21 | 355 | 1.6 | 4.8 | 0.00 | 0.00 | 0.00 | 51 | 1011.1 |
| 20260905030704 | 21 | 355 | 1.6 | 4.8 | 0.00 | 0.00 | 0.00 | 50 | 1011.1 |
| 20260905030203 | 21 | 355 | 1.6 | 4.8 | 0.00 | 0.00 | 0.00 | 49 | 1011.1 |
| 20260905024704 | 22 | 355 | 3.2 | 4.8 | 0.00 | 0.00 | 0.00 | 48 | 1011.1 |
| 20260905014704 | 21 | 355 | 1.6 | 4.8 | 0.00 | 0.00 | 0.00 | 51 | 1011.4 |
| 20260905013204 | 21 | 355 | 1.6 | 4.8 | 0.00 | 0.00 | 0.00 | 52 | 1011.6 |
| 20260905011704 | 21 | 355 | 1.6 | 3.2 | 0.00 | 0.00 | 0.00 | 53 | 1011.6 |
| 20260905004704 | 22 | 355 | 1.6 | 4.8 | 0.00 | 0.00 | 0.00 | 50 | 1011.6 |
| 20260905004204 | 22 | 355 | 3.2 | 4.8 | 0.00 | 0.00 | 0.00 | 51 | 1011.6 |
| 20260905003704 | 22 | 355 | 1.6 | 4.8 | 0.00 | 0.00 | 0.00 | 51 | 1011.6 |
| 20260905003204 | 22 | 355 | 1.6 | 4.8 | 0.00 | 0.00 | 0.00 | 50 | 1011.6 |
| 20260905000704 | 23 | 355 | 0.0 | 3.2 | 0.00 | 0.00 | 0.00 | 48 | 1011.6 |
| 20260904234704 | 24 | 355 | 0.0 | 1.6 | 0.00 | 0.00 | 0.00 | 44 | 1011.7 |
| 20260904231705 | 25 | 5 | 1.6 | 4.8 | 0.00 | 0.00 | 0.00 | 40 | 1011.7 |
| 20260904231203 | 25 | 5 | 1.6 | 8.0 | 0.00 | 0.00 | 0.00 | 41 | 1011.7 |
| 20260904224704 | 25 | 5 | 0.0 | 1.6 | 0.00 | 0.00 | 0.00 | 40 | 1011.9 |
| 20260904223204 | 25 | 5 | 3.2 | 8.0 | 0.00 | 0.00 | 0.00 | 42 | 1012.0 |
| 20260904221703 | 25 | 5 | 1.6 | 3.2 | 0.00 | 0.00 | 0.00 | 46 | 1012.3 |
| 20260904221204 | 25 | 5 | 0.0 | 1.6 | 0.00 | 0.00 | 0.00 | 45 | 1012.3 |
| 20260904220705 | 26 | 5 | 0.0 | 0.0 | 0.00 | 0.00 | 0.00 | 45 | 1012.3 |
| 20260904220204 | 26 | 5 | 0.0 | 4.8 | 0.00 | 0.00 | 0.00 | 43 | 1012.3 |
| 20260904213704 | 26 | 5 | 0.0 | 1.6 | 0.00 | 0.00 | 0.00 | 38 | 1012.3 |
| 20260904211704 | 26 | 5 | 0.0 | 3.2 | 0.00 | 0.00 | 0.00 | 35 | 1012.3 |
| 20260904204204 | 26 | 5 | 1.6 | 4.8 | 0.00 | 0.00 | 0.00 | 35 | 1012.4 |
| 20260904203704 | 27 | 5 | 3.2 | 4.8 | 0.00 | 0.00 | 0.00 | 33 | 1012.4 |
| 20260904203204 | 27 | 5 | 1.6 | 3.2 | 0.00 | 0.00 | 0.00 | 32 | 1012.4 |
| 20260904201704 | 28 | 5 | 1.6 | 3.2 | 0.00 | 0.00 | 0.00 | 28 | 1012.4 |
| 20260904200703 | 28 | 5 | 3.2 | 4.8 | 0.00 | 0.00 | 0.00 | 27 | 1012.4 |
| 20260904200204 | 28 | 5 | 3.2 | 4.8 | 0.00 | 0.00 | 0.00 | 26 | 1012.4 |
| 20260904194204 | 28 | 5 | 3.2 | 4.8 | 0.00 | 0.00 | 0.00 | 27 | 1012.3 |
| 20260904193704 | 28 | 9 | 1.6 | 4.8 | 0.00 | 0.00 | 0.00 | 29 | 1012.3 |
| 20260904193203 | 28 | 9 | 1.6 | 4.8 | 0.00 | 0.00 | 0.00 | 32 | 1012.3 |
| 20260904191703 | 28 | 9 | 1.6 | 4.8 | 0.00 | 0.00 | 0.00 | 35 | 1012.3 |
| 20260904191203 | 28 | 9 | 1.6 | 3.2 | 0.00 | 0.00 | 0.00 | 34 | 1012.0 |
| 20260904190703 | 28 | 9 | 1.6 | 3.2 | 0.00 | 0.00 | 0.00 | 35 | 1012.0 |
| 20260904184704 | 29 | 9 | 1.6 | 3.2 | 0.00 | 0.00 | 0.00 | 39 | 1012.0 |
| 20260904183703 | 30 | 9 | 0.0 | 3.2 | 0.00 | 0.00 | 0.00 | 39 | 1012.0 |
| 20260904181203 | 31 | 9 | 1.6 | 4.8 | 0.00 | 0.00 | 0.00 | 35 | 1011.6 |
| 20260904174705 | 32 | 9 | 1.6 | 3.2 | 0.00 | 0.00 | 0.00 | 32 | 1011.6 |
| 20260904174205 | 32 | 9 | 1.6 | 3.2 | 0.00 | 0.00 | 0.00 | 31 | 1011.6 |
| 20260904171705 | 33 | 9 | 0.0 | 3.2 | 0.00 | 0.00 | 0.00 | 29 | 1011.6 |
| 20260904170705 | 33 | 9 | 3.2 | 4.8 | 0.00 | 0.00 | 0.00 | 29 | 1011.6 |
| 20260904164706 | 33 | 9 | 1.6 | 4.8 | 0.00 | 0.00 | 0.00 | 27 | 1011.6 |
| 20260904164205 | 34 | 5 | 3.2 | 4.8 | 0.00 | 0.00 | 0.00 | 28 | 1011.9 |
| 20260904160206 | 34 | 5 | 3.2 | 8.0 | 0.00 | 0.00 | 0.00 | 27 | 1011.9 |
| 20260904154205 | 34 | 19 | 3.2 | 9.7 | 0.00 | 0.00 | 0.00 | 28 | 1012.0 |
| 20260904153205 | 34 | 334 | 3.2 | 12.9 | 0.00 | 0.00 | 0.00 | 28 | 1012.0 |